Location: Bothwell
(42.3833°S, 147.0000°E)
Time: 21:05:26
(UTC+11:00)

DIWATA 2B (PO-101) - Pass Details

Date: 02 October 2022
Orbit: 582 x 598 km, 98.0° (Epoch: 25 November)

Event Time Altitude Azimuth Distance (km) Brightness Sun altitude
Rises 04:15:59 0° 169° (S) 2,848 ? -26.6°
Reaches altitude 10° 04:18:10 10° 170° (S) 1,940 ? -26.3°
Enters shadow 04:21:22 51° 180° (S) 757 ? -25.8°
